Regional Weather Roundup
Issued by NWS Charleston, WV

Home | Current Version | Previous Version | Text Only | Print | Product List | Glossary Off
Versions: 1 2 3 4 5 6 7 8 9 10 11 12 13 14 15 16 17 18 19 20 21 22 23 24 25 26 27 28 29 30 31 32 33 34 35 36 37 38 39 40 41 42 43 44 45 46 47 48 49 50

392
ASUS41 KRLX 252110
RWRRLX
West Virginia Regional Weather Roundup
National Weather Service Charleston WV
500 PM EDT WED MAY 25 2016

Note: "fair" indicates few or no clouds below 12,000 feet with no
significant weather and/or obstructions to visibility.

WVZ003-252200-
Northern Panhandle of West Virginia

CITY           SKY/WX    TMP DP  RH WIND       PRES   REMARKS
WHEELING         N/A     82  52  35 VRB7      30.13F
$$

WVZ009-252200-
Northwest West Virginia

CITY           SKY/WX    TMP DP  RH WIND       PRES   REMARKS
PARKERSBURG    PTSUNNY   79  57  46 SW5       30.16F
$$

WVZ006-252200-
Western West Virginia

CITY           SKY/WX    TMP DP  RH WIND       PRES   REMARKS
HUNTINGTON     PTSUNNY   81  60  48 S5        30.12F
$$

WVZ015-252200-
West Central West Virginia

CITY           SKY/WX    TMP DP  RH WIND       PRES   REMARKS
CHARLESTON     PTSUNNY   84  56  38 W3        30.13F
$$

WVZ022-031-252200-
North Central West Virginia

CITY           SKY/WX    TMP DP  RH WIND       PRES   REMARKS
CLARKSBURG       N/A     81  54  39 SW9       30.15F
MORGANTOWN       N/A     82  46  28 SW9       30.15F
$$

WVZ025-035-042-045-252200-
Southern West Virginia

CITY           SKY/WX    TMP DP  RH WIND       PRES   REMARKS
BECKLEY        CLOUDY    77  52  41 NW6       30.22F
LOGAN          PTSUNNY   81  57  44 SW6       30.16F
BLUEFIELD      CLOUDY    74  53  48 CALM      30.25F
LEWISBURG      PTSUNNY   78  51  39 W6        30.21F
$$

WVZ047-252200-
Northern Mountains of West Virginia

CITY           SKY/WX    TMP DP  RH WIND       PRES   REMARKS
ELKINS           N/A     81  42  25 NW7       30.19F
$$

WVZ052-252200-
Eastern Panhandle of West Virginia

CITY           SKY/WX    TMP DP  RH WIND       PRES   REMARKS
MARTINSBURG      N/A     84  53  34 S9        30.11F
PETERSBURG       N/A     87  51  29 CALM      30.12F
$$




USA.gov is the U.S. government's official web portal to all federal, state and local government web resources and services.